Location: *
(32.8667°N, 13.1833°E)
Time: 17:29:58
(UTC+00:00)

Landsat 7 - Pass Details

Date: 18 July 2019
Orbit: 701 x 703 km, 98.1° (Epoch: 24 August)

Event Time Altitude Azimuth Distance (km) Brightness Sun altitude
Exits shadow 20:57:34 68° 276° (W) 757 4.0 -27.1°
Drops below altitude 10° 21:02:07 10° 342° (NNW) 2,174 7.2 -27.7°
Sets 21:04:24 0° 345° (NNW) 3,096 8.2 -28.0°
